カタログに戻る

STARLINK-34824

運用中通信VLEO
NORAD 65042·PAYLOAD·🇺🇸 United States

打ち上げ Jul 30, 2025 から Cape Canaveral Space Force Station

Loading…

次のパス (今後24時間)

TLE

最新Source: CelesTrak SupGP

元期: Sep 15, 2026, 03:14 UTC

1 65042C 25161AD  26258.13520833  .00027147  00000+0  80232-3 0  2586
2 65042  53.1565 130.6745 0001259  81.0578 333.9229 15.34366836    13

AllMySatでSTARLINK-34824をリアルタイム追跡

Download on the App Store